�N����,����,�~����,�C��,���x,�C��,����,���ϕ���,�ő�u�ԕ���,�ő厞����,���˗�,�I�_���x,�n�����x,�ő啗���N��,DTYPE
"19/03/25","00:10",0.0,3.7,87.4,1013.5,282.1,1.7,2.4,309.3,0.00,1.8,9.0,"00:07:28",1
"19/03/25","00:20",0.0,3.6,87.9,1013.5,288.6,1.8,2.4,298.6,0.00,1.8,8.7,"00:15:28",1
"19/03/25","00:30",0.0,3.4,87.9,1013.3,295.0,1.3,2.1,317.0,0.00,1.6,9.0,"00:25:44",1
"19/03/25","00:40",0.0,3.0,87.7,1013.3,309.9,1.1,2.2,313.6,0.00,1.2,8.7,"00:39:58",1
"19/03/25","00:50",0.0,2.9,89.4,1013.0,320.2,2.2,2.8,323.7,0.00,1.4,8.7,"00:46:08",1
"19/03/25","01:00",0.0,2.7,90.2,1013.0,290.0,1.7,2.4,319.3,0.00,1.3,8.5,"00:50:24",1
"19/03/25","01:10",0.0,2.7,90.1,1012.8,292.5,2.0,2.4,309.2,0.00,1.3,8.7,"01:09:44",1
"19/03/25","01:20",0.0,2.8,90.1,1012.8,295.1,2.1,3.1,311.4,0.00,1.4,8.6,"01:15:52",1
"19/03/25","01:30",0.0,2.7,90.6,1013.0,295.7,1.8,2.4,312.7,0.00,1.4,8.5,"01:24:24",1
"19/03/25","01:40",0.0,2.5,90.7,1012.6,294.4,1.8,2.7,309.0,0.00,1.2,8.3,"01:31:44",1
"19/03/25","01:50",0.0,2.2,90.9,1012.8,312.6,2.5,2.9,320.0,0.00,0.9,8.4,"01:42:00",1
"19/03/25","02:00",0.0,2.3,91.7,1012.3,290.0,2.0,3.1,314.1,0.00,1.1,8.2,"01:57:36",1
"19/03/25","02:10",0.0,2.0,91.2,1012.1,306.9,2.1,2.7,321.5,0.00,0.8,8.2,"02:09:20",1
"19/03/25","02:20",0.0,1.7,91.7,1012.3,315.4,1.8,2.7,323.3,0.00,0.5,8.4,"02:10:32",1
"19/03/25","02:30",0.0,1.8,93.5,1012.3,322.2,2.2,3.1,315.5,0.00,0.9,8.2,"02:20:16",1
"19/03/25","02:40",0.0,1.8,93.0,1012.6,306.3,2.0,2.6,319.6,0.00,0.8,8.0,"02:31:20",1
"19/03/25","02:50",0.0,1.6,93.4,1011.9,304.5,1.7,2.0,326.3,0.00,0.7,7.9,"02:41:04",1
"19/03/25","03:00",0.0,1.3,93.5,1012.3,304.5,1.3,1.6,312.0,0.00,0.4,7.9,"02:54:24",1
"19/03/25","03:10",0.0,1.2,93.3,1012.1,325.3,2.0,2.6,326.9,0.00,0.3,7.8,"03:05:20",1
"19/03/25","03:20",0.0,1.2,94.6,1012.1,312.8,1.6,2.2,324.5,0.00,0.5,7.8,"03:11:28",1
"19/03/25","03:30",0.0,1.2,94.2,1012.1,314.2,1.7,2.4,325.0,0.00,0.4,7.8,"03:21:52",1
"19/03/25","03:40",0.0,1.3,94.9,1011.9,294.5,1.5,2.2,324.0,0.00,0.6,7.8,"03:31:12",1
"19/03/25","03:50",0.0,1.5,94.9,1011.6,291.9,1.6,2.5,319.3,0.00,0.8,7.6,"03:45:36",1
"19/03/25","04:00",0.0,1.0,94.0,1011.9,320.5,2.2,3.4,336.0,0.00,0.2,7.7,"03:57:44",1
"19/03/25","04:10",0.0,0.8,95.1,1011.9,303.9,1.7,2.5,323.1,0.00,0.1,7.7,"04:00:56",1
"19/03/25","04:20",0.0,0.8,95.3,1011.9,305.3,1.5,1.9,319.2,0.00,0.2,7.7,"04:17:20",1
"19/03/25","04:30",0.0,0.9,95.6,1011.6,329.0,1.7,2.6,338.1,0.00,0.3,7.6,"04:24:48",1
"19/03/25","04:40",0.0,0.5,95.0,1011.9,294.5,1.1,1.6,328.8,0.00,-0.2,7.3,"04:30:32",1
"19/03/25","04:50",0.0,0.5,95.6,1012.1,319.7,1.3,2.4,335.8,0.00,-0.1,7.5,"04:45:44",1
"19/03/25","05:00",0.0,0.7,96.2,1012.1,321.7,1.3,1.9,324.4,0.00,0.2,7.5,"04:54:48",1
"19/03/25","05:10",0.0,0.5,95.9,1012.1,319.2,1.1,1.7,325.7,0.00,0.0,7.3,"05:06:40",1
"19/03/25","05:20",0.0,0.1,96.0,1012.1,319.9,1.5,2.5,336.3,0.00,-0.4,7.4,"05:14:24",1
"19/03/25","05:30",0.0,0.3,97.2,1012.1,292.6,1.1,1.4,295.0,0.00,-0.1,7.2,"05:28:00",1
"19/03/25","05:40",0.0,0.8,96.2,1012.1,333.5,1.3,2.0,313.4,0.00,0.3,7.2,"05:31:20",1
"19/03/25","05:50",0.0,0.2,96.5,1012.3,326.2,2.0,2.5,324.2,0.00,-0.3,7.2,"05:47:04",1
"19/03/25","06:00",0.0,0.3,97.1,1012.3,316.8,1.0,1.8,345.0,0.00,-0.1,7.2,"05:50:08",1
"19/03/25","06:10",0.0,0.2,96.6,1012.6,313.1,1.6,2.5,309.3,0.00,-0.2,7.0,"06:01:20",1
"19/03/25","06:20",0.0,0.2,97.1,1011.9,305.7,0.7,1.2,306.3,0.00,-0.2,7.0,"06:14:40",1
"19/03/25","06:30",0.0,0.0,96.7,1011.9,353.1,1.0,2.0,333.2,0.00,-0.4,7.0,"06:29:28",1
"19/03/25","06:40",0.0,0.4,97.9,1012.3,336.0,2.0,2.6,335.2,0.00,0.1,6.8,"06:31:12",1
"19/03/25","06:50",0.0,0.6,97.3,1012.1,281.1,1.3,1.6,293.1,0.00,0.3,6.9,"06:49:28",1
"19/03/25","07:00",0.0,1.1,97.7,1012.6,291.9,1.3,1.6,289.8,0.01,0.8,6.9,"06:50:08",1
"19/03/25","07:10",0.0,1.5,97.2,1012.6,308.1,1.6,2.1,317.6,0.01,1.1,7.0,"07:05:04",1
"19/03/25","07:20",0.0,1.6,97.3,1013.0,305.1,2.0,2.6,315.9,0.02,1.3,6.9,"07:12:24",1
"19/03/25","07:30",0.0,2.7,96.5,1013.0,288.8,1.0,1.4,304.8,0.04,2.2,7.1,"07:20:16",1
"19/03/25","07:40",0.0,3.1,96.4,1013.5,250.4,0.2,0.9,304.5,0.05,2.6,7.0,"07:39:44",1
"19/03/25","07:50",0.0,3.9,95.0,1013.8,259.2,0.5,1.0,154.5,0.07,3.2,7.2,"07:48:16",1
"19/03/25","08:00",0.0,4.5,92.5,1014.0,251.5,0.2,1.0,287.7,0.08,3.4,7.2,"07:58:48",1
"19/03/25","08:10",0.0,5.1,88.7,1014.2,223.4,0.3,0.9,269.5,0.11,3.4,7.1,"08:05:20",1
"19/03/25","08:20",0.0,5.2,86.1,1014.7,170.9,0.5,1.2,123.1,0.11,3.1,7.3,"08:15:04",1
"19/03/25","08:30",0.0,5.5,83.4,1014.9,256.1,0.3,1.1,284.9,0.12,3.0,7.5,"08:26:08",1
"19/03/25","08:40",0.0,6.1,81.2,1014.9,251.7,0.6,1.0,288.3,0.16,3.2,7.4,"08:37:52",1
"19/03/25","08:50",0.0,6.3,80.0,1014.7,202.9,0.6,1.2,120.3,0.19,3.1,7.7,"08:40:40",1
"19/03/25","09:00",0.0,6.9,78.6,1015.2,265.6,0.7,1.2,266.6,0.20,3.5,7.7,"08:52:24",1
"19/03/25","09:10",0.0,7.4,76.2,1015.6,254.6,0.8,1.3,250.8,0.26,3.5,7.8,"09:05:44",1
"19/03/25","09:20",0.0,7.9,73.6,1016.1,192.8,1.0,2.4,164.5,0.28,3.5,8.1,"09:16:16",1
"19/03/25","09:30",0.0,8.2,72.3,1015.9,223.9,1.0,2.1,198.1,0.23,3.6,8.2,"09:20:08",1
"19/03/25","09:40",0.0,8.6,69.3,1016.1,152.5,1.0,2.1,121.5,0.30,3.3,8.4,"09:36:24",1
"19/03/25","09:50",0.0,9.0,67.9,1015.6,133.9,1.3,2.9,166.0,0.38,3.4,8.5,"09:44:56",1
"19/03/25","10:00",0.0,9.4,67.4,1015.9,163.8,1.0,1.9,120.6,0.34,3.7,8.7,"09:59:52",1
"19/03/25","10:10",0.0,9.9,65.6,1015.6,131.9,0.8,2.1,111.6,0.38,3.8,8.8,"10:08:00",1
"19/03/25","10:20",0.0,9.9,64.7,1015.6,200.3,1.1,2.7,139.6,0.41,3.6,9.0,"10:14:48",1
"19/03/25","10:30",0.0,10.5,65.5,1015.4,137.7,1.3,3.3,111.3,0.43,4.4,9.3,"10:26:24",1
"19/03/25","10:40",0.0,11.2,65.0,1015.2,135.2,1.3,3.7,156.0,0.43,4.9,9.5,"10:39:20",1
"19/03/25","10:50",0.0,11.1,64.5,1015.4,197.9,1.8,5.1,197.4,0.47,4.7,9.7,"10:45:52",1
"19/03/25","11:00",0.0,11.7,62.5,1014.9,112.9,1.3,3.4,115.2,0.47,4.8,9.7,"10:59:28",1
"19/03/25","11:10",0.0,12.6,61.1,1014.9,38.7,1.2,3.9,112.7,0.47,5.3,10.1,"11:09:28",1
"19/03/25","11:20",0.0,12.0,60.4,1014.2,190.1,2.0,3.4,208.0,0.45,4.6,10.3,"11:13:12",1
"19/03/25","11:30",0.0,12.4,60.2,1014.5,128.3,2.0,4.5,116.4,0.46,4.9,10.5,"11:23:36",1
"19/03/25","11:40",0.0,12.5,58.5,1014.5,158.5,1.5,2.6,142.5,0.39,4.6,10.7,"11:37:20",1
"19/03/25","11:50",0.0,12.9,57.0,1014.0,81.7,1.6,3.3,98.2,0.35,4.6,10.8,"11:45:28",1
"19/03/25","12:00",0.0,13.0,58.7,1014.0,174.2,1.7,3.5,213.3,0.31,5.1,11.1,"11:54:56",1
"19/03/25","12:10",0.0,12.9,56.0,1013.8,151.1,1.6,2.9,190.0,0.32,4.4,11.2,"12:08:56",1
"19/03/25","12:20",0.0,13.1,55.5,1014.0,184.2,1.6,2.9,209.8,0.32,4.4,11.5,"12:10:40",1
"19/03/25","12:30",0.0,13.6,54.5,1013.5,130.3,1.6,3.6,122.1,0.35,4.6,11.4,"12:27:04",1
"19/03/25","12:40",0.0,13.2,52.8,1013.8,158.9,2.2,4.8,219.8,0.34,3.8,11.4,"12:38:48",1
"19/03/25","12:50",0.0,13.8,52.5,1013.3,118.5,2.0,5.0,119.0,0.33,4.3,11.6,"12:48:24",1
"19/03/25","13:00",0.0,13.8,50.9,1012.6,164.0,2.7,5.7,120.9,0.30,3.9,11.6,"12:55:12",1
"19/03/25","13:10",0.0,13.9,51.6,1012.8,233.7,2.1,5.6,231.7,0.26,4.1,11.8,"13:00:08",1
"19/03/25","13:20",0.0,13.6,49.4,1012.6,204.3,2.5,5.1,232.7,0.26,3.3,11.9,"13:18:16",1
"19/03/25","13:30",0.0,13.9,49.6,1012.3,210.0,2.2,4.5,231.5,0.24,3.6,11.9,"13:21:04",1
"19/03/25","13:40",0.0,13.9,48.7,1012.1,190.7,1.7,3.5,200.6,0.22,3.3,12.0,"13:30:08",1
"19/03/25","13:50",0.0,13.8,48.9,1012.1,200.3,1.7,2.9,145.7,0.20,3.3,12.0,"13:40:56",1
"19/03/25","14:00",0.0,13.8,49.4,1012.1,205.0,1.8,2.9,231.6,0.19,3.4,12.0,"13:54:56",1
"19/03/25","14:10",0.0,13.8,49.2,1012.3,224.9,1.6,3.2,224.8,0.18,3.4,12.1,"14:02:16",1
"19/03/25","14:20",0.0,13.8,48.1,1012.3,247.4,1.7,3.9,235.5,0.15,3.1,12.1,"14:10:08",1
"19/03/25","14:30",0.0,13.9,48.2,1012.1,229.3,2.2,3.6,229.6,0.13,3.2,12.1,"14:22:24",1
"19/03/25","14:40",0.0,14.0,50.0,1012.3,256.0,1.3,3.3,237.5,0.13,3.8,12.0,"14:30:02",1
"19/03/25","14:50",0.0,14.0,50.3,1012.3,292.4,1.3,2.4,334.4,0.11,3.9,12.1,"14:45:36",1
"19/03/25","15:00",0.0,14.0,48.6,1012.1,310.7,2.2,4.1,327.2,0.11,3.4,12.0,"14:58:16",1
"19/03/25","15:10",0.0,14.0,47.7,1012.3,322.3,2.5,3.7,334.6,0.11,3.1,11.8,"15:06:34",1
"19/03/25","15:20",0.0,14.0,47.1,1011.9,310.6,2.2,4.2,314.0,0.11,2.9,12.0,"15:10:24",1
"19/03/25","15:30",0.0,14.0,48.4,1012.3,304.6,2.2,3.3,337.5,0.12,3.3,11.9,"15:21:12",1
"19/03/25","15:40",0.0,14.4,45.6,1011.9,295.1,2.1,3.5,338.3,0.10,2.9,11.9,"15:39:04",1
"19/03/25","15:50",0.0,14.1,45.7,1012.1,291.2,2.0,3.6,341.3,0.08,2.6,12.0,"15:46:40",1
"19/03/25","16:00",0.0,13.9,46.4,1012.1,318.3,2.6,4.2,342.4,0.09,2.6,11.7,"15:55:12",1
"19/03/25","16:10",0.0,13.9,45.6,1011.9,304.7,2.6,4.0,335.0,0.07,2.4,12.0,"16:05:44",1
"19/03/25","16:20",0.0,13.9,45.2,1012.1,302.1,2.2,4.5,323.8,0.08,2.3,11.9,"16:11:44",1
"19/03/25","16:30",0.0,13.7,45.3,1011.9,290.5,2.1,2.9,320.2,0.06,2.1,11.7,"16:22:40",1
"19/03/25","16:40",0.0,13.7,43.9,1011.9,294.1,2.1,3.7,314.9,0.06,1.7,11.7,"16:33:12",1
"19/03/25","16:50",0.0,13.6,40.1,1011.6,281.0,1.8,3.3,328.3,0.06,0.3,11.7,"16:48:16",1
"19/03/25","17:00",0.0,13.6,39.2,1011.9,289.8,1.5,2.7,310.0,0.05,0.0,11.7,"16:53:52",1
"19/03/25","17:10",0.0,13.5,37.3,1011.9,290.7,1.7,3.1,330.1,0.05,-0.7,11.8,"17:01:12",1
"19/03/25","17:20",0.0,13.4,35.3,1011.9,278.9,1.6,2.6,296.4,0.03,-1.6,11.5,"17:18:24",1
"19/03/25","17:30",0.0,13.2,36.8,1011.9,291.5,1.5,2.8,229.6,0.03,-1.2,11.8,"17:20:16",1
"19/03/25","17:40",0.0,13.0,36.8,1011.9,290.9,1.6,2.6,309.7,0.02,-1.4,11.6,"17:36:00",1
"19/03/25","17:50",0.0,12.9,36.8,1012.1,279.5,1.5,2.1,237.2,0.01,-1.5,11.5,"17:49:52",1
"19/03/25","18:00",0.0,12.8,37.3,1011.9,280.9,1.3,2.9,308.2,0.00,-1.4,11.5,"17:55:12",1
"19/03/25","18:10",0.0,12.5,39.3,1012.1,306.4,1.2,1.8,306.5,0.00,-0.9,11.4,"18:09:58",1
"19/03/25","18:20",0.0,12.2,41.9,1012.6,320.7,1.6,2.4,321.3,0.00,-0.3,11.4,"18:19:14",1
"19/03/25","18:30",0.0,11.8,43.7,1012.6,297.9,1.7,2.2,301.6,0.00,-0.1,11.4,"18:27:12",1
"19/03/25","18:40",0.0,11.5,47.6,1012.3,324.1,2.0,2.4,324.8,0.00,0.8,11.4,"18:34:38",1
"19/03/25","18:50",0.0,11.0,49.7,1012.1,320.5,1.6,1.9,319.5,0.00,0.9,11.1,"18:47:14",1
"19/03/25","19:00",0.0,10.6,51.3,1012.3,297.5,1.7,2.5,309.2,0.00,1.0,11.1,"18:56:30",1
"19/03/25","19:10",0.0,10.2,54.0,1012.3,298.4,1.6,2.5,310.3,0.00,1.4,11.0,"19:09:48",1
"19/03/25","19:20",0.0,10.0,56.6,1012.3,316.6,1.7,2.1,307.9,0.00,1.8,11.0,"19:13:52",1
"19/03/25","19:30",0.0,9.6,57.9,1012.1,322.7,2.0,2.5,310.4,0.00,1.8,11.0,"19:27:52",1
"19/03/25","19:40",0.0,9.5,59.1,1011.9,292.0,2.0,2.2,313.5,0.00,2.0,10.9,"19:30:48",1
"19/03/25","19:50",0.0,9.3,60.8,1011.9,299.7,1.6,2.4,322.4,0.00,2.2,10.7,"19:42:00",1
"19/03/25","20:00",0.0,9.2,63.1,1012.3,307.7,2.0,2.5,323.2,0.00,2.6,10.7,"19:59:12",1
"19/03/25","20:10",0.0,9.3,64.2,1012.3,321.2,3.6,5.1,314.0,0.00,2.9,10.7,"20:04:40",1
"19/03/25","20:20",0.0,9.2,64.6,1011.9,283.6,2.0,2.9,314.9,0.00,2.9,10.7,"20:12:24",1
"19/03/25","20:30",0.0,9.3,63.3,1012.3,263.6,1.8,2.4,272.7,0.00,2.7,10.7,"20:24:40",1
"19/03/25","20:40",0.0,9.5,61.1,1012.1,319.1,2.1,2.9,335.2,0.00,2.4,10.4,"20:36:56",1
"19/03/25","20:50",0.0,8.9,65.6,1012.6,316.4,2.6,3.5,326.8,0.00,2.9,10.3,"20:45:36",1
"19/03/25","21:00",0.0,8.8,66.4,1012.1,296.7,2.0,3.1,313.3,0.00,2.9,10.5,"20:52:56",1
"19/03/25","21:10",0.0,8.6,67.1,1012.6,292.6,2.1,2.6,303.1,0.00,2.9,10.4,"21:05:04",1
"19/03/25","21:20",0.0,8.5,68.2,1012.1,315.7,2.3,3.5,319.6,0.00,3.0,10.5,"21:12:16",1
"19/03/25","21:30",0.0,8.2,69.2,1012.3,311.5,2.0,2.5,325.2,0.00,2.9,10.3,"21:24:56",1
"19/03/25","21:40",0.0,7.9,71.4,1011.9,284.5,1.1,1.6,276.4,0.00,3.1,10.2,"21:30:02",1
"19/03/25","21:50",0.0,7.9,71.9,1012.1,301.7,1.6,2.2,324.0,0.00,3.2,10.3,"21:44:48",1
"19/03/25","22:00",0.0,8.0,72.1,1012.3,280.4,1.6,2.4,278.7,0.00,3.3,10.2,"21:59:44",1
"19/03/25","22:10",0.0,8.0,71.1,1012.3,293.7,1.8,2.6,311.4,0.00,3.1,10.2,"22:05:52",1
"19/03/25","22:20",0.0,8.0,71.0,1012.1,303.5,2.0,2.8,316.8,0.00,3.1,9.9,"22:17:04",1
"19/03/25","22:30",0.0,7.9,71.1,1011.9,292.0,1.7,2.7,322.9,0.00,3.0,10.1,"22:20:16",1
"19/03/25","22:40",0.0,7.8,71.3,1012.3,302.4,1.8,2.5,318.7,0.00,3.0,10.1,"22:34:48",1
"19/03/25","22:50",0.0,7.7,71.7,1012.1,326.1,1.7,2.6,320.8,0.00,3.0,10.1,"22:40:16",1
"19/03/25","23:00",0.0,7.4,72.7,1011.9,289.0,1.6,2.2,309.9,0.00,2.9,9.9,"22:58:00",1
"19/03/25","23:10",0.0,7.6,73.0,1011.9,285.4,2.0,2.4,296.3,0.00,3.1,9.8,"23:08:32",1
"19/03/25","23:20",0.0,7.7,72.4,1011.6,306.6,2.1,3.2,319.9,0.00,3.1,9.7,"23:17:28",1
"19/03/25","23:30",0.0,7.4,73.0,1011.6,311.0,1.7,2.6,323.4,0.00,2.9,9.9,"23:28:48",1
"19/03/25","23:40",0.0,7.3,73.5,1011.4,319.4,2.3,3.2,311.4,0.00,2.9,9.9,"23:34:16",1
"19/03/25","23:50",0.0,7.1,74.3,1011.2,301.2,1.7,2.1,307.5,0.00,2.9,9.8,"23:48:00",1
"19/03/25","24:00",0.0,7.0,74.7,1010.7,284.3,2.0,2.8,315.9,0.00,2.9,9.8,"23:59:52",1
